This is the latest recevied weather packets stored in our database for station/object W8MRL. If no packets are shown the sender has not sent any weather packets the latest 10 day(s).
| Time | Temp. | Humidity | Pressure | Rain* | Wind** | Luminosity | Snow |
|---|---|---|---|---|---|---|---|
| 1776926707 | 13.89° C | 88% | 1019 hPa | 0 mm | - | - | - |
| 1776925804 | 14.44° C | 87% | 1019.1 hPa | 0 mm | - | - | - |
| 1776924961 | 15° C | 85% | 1019.1 hPa | 0 mm | - | - | - |
| 1776924057 | 15.56° C | 84% | 1019.4 hPa | 0 mm | - | - | - |
| 1776923155 | 16.11° C | 82% | 1019.3 hPa | 0 mm | - | - | - |
| 1776922262 | 16.11° C | 82% | 1019.2 hPa | 0 mm | - | - | - |
| 1776921354 | 16.11° C | 83% | 1019.4 hPa | 0 mm | - | - | - |
| 1776920457 | 15.56° C | 84% | 1019.5 hPa | 0 mm | - | - | - |
| 1776919553 | 16.11° C | 82% | 1019.4 hPa | 0 mm | - | - | - |
| 1776918653 | 16.11° C | 82% | 1019.3 hPa | 0 mm | - | - | - |
| 1776917761 | 16.11° C | 81% | 1019.3 hPa | 0 mm | - | - | - |
| 1776916847 | 16.67° C | 81% | 1019.3 hPa | 0 mm | - | - | - |
| 1776915945 | 16.67° C | 80% | 1019.3 hPa | 0 mm | - | - | - |
| 1776915049 | 17.22° C | 79% | 1019.3 hPa | 0 mm | - | - | - |
| 1776914145 | 17.22° C | 78% | 1019.4 hPa | 0 mm | - | - | - |
| 1776913244 | 17.78° C | 76% | 1019.4 hPa | 0 mm | - | - | - |
| 1776912345 | 17.78° C | 76% | 1019.3 hPa | 0 mm | - | - | - |
| 1776911446 | 17.78° C | 73% | 1019.2 hPa | 0 mm | - | - | - |
| 1776910541 | 18.89° C | 67% | 1019.1 hPa | 0 mm | - | - | - |
| 1776909641 | 18.33° C | 63% | 1018.9 hPa | 0 mm | - | - | - |
| 1776908741 | 18.89° C | 63% | 1018.7 hPa | 0 mm | - | - | - |
| 1776907840 | 18.89° C | 60% | 1018.6 hPa | 0 mm | - | - | - |
| 1776906940 | 19.44° C | 58% | 1018.5 hPa | 0 mm | - | - | - |
| 1776906048 | 20° C | 56% | 1018.2 hPa | 0 mm | - | - | - |
| 1776905141 | 21.11° C | 54% | 1018.3 hPa | 0 mm | - | - | - |
* Rain latest hour (hover to see other rain measurements)
** Current wind speed in m/s (hover to see current wind gust speed)